Clinton, MO

1:21 PM CDT on March 23, 2017 (GMT -0500)
Clinton Memorial

Weather History for KGLY - May, 2014

Change the Weather History Date:

Friday, May 9, 2014

  Actual Average (KSZL) Record (KSZL)
Temperature  
Mean Temperature 64 °F -  
Max Temperature 73 °F 72 °F 90 °F (2011)
Min Temperature 55 °F 52 °F 46 °F (1997)
Degree Days  
Heating Degree Days 1    
Growing Degree Days 14 (Base 50)    
Moisture  
Dew Point 53 °F    
Average Humidity 68    
Maximum Humidity 94    
Minimum Humidity 41    
Precipitation  
Precipitation 0.00 in - - ()
Sea Level Pressure  
Sea Level Pressure 29.87 in    
Wind  
Wind Speed 7 mph (West)    
Max Wind Speed 14 mph    
Max Gust Speed 17 mph    
Visibility 10 miles    
Events      
Averages and records for this station are not official NWS values.
T = Trace of Precipitation, MM = Missing Value Source: NWS Daily Summary

Daily Weather History Graph

Daily Weather History Graph

Search for Another Location

Airport or City:

Trip Planner

Search our weather history database for the weather conditions in past years. The results will help you decide how hot, cold, wet, or windy it might be!

Date:

Astronomy

May. 09, 2014 Rise Set
Actual Time 6:09 AM CDT 8:13 PM CDT
Civil Twilight 5:39 AM CDT 8:43 PM CDT
Nautical Twilight 5:04 AM CDT 9:18 PM CDT
Astronomical Twilight 4:25 AM CDT 9:57 PM CDT
Moon 3:15 PM CDT (5/9) 3:07 AM CDT (5/9)
Length of Visible Light 15h 03m
Length of Day
14h 04m
Waxing Gibbous, 74% of the Moon is Illuminated
May 9
Waxing Gibbous
May 14
Full
May 21
Last Quarter
May 28
New
Jun 5
First Quarter

Hourly Weather History & Observations

Time (CDT) Temp. Dew Point Humidity Pressure Visibility Wind Dir Wind Speed Gust Speed Precip Events Conditions
12:15 AM 62.6 °F 59.0 °F 88% 29.77 in 10.0 mi South 9.2 mph - N/A   Overcast
12:35 AM 62.6 °F 59.0 °F 88% 29.78 in 8.0 mi South 9.2 mph - N/A   Mostly Cloudy
12:55 AM 62.6 °F 57.2 °F 82% 29.80 in 10.0 mi SSW 9.2 mph - N/A   Light Drizzle
1:15 AM 62.6 °F 59.0 °F 88% 29.80 in 10.0 mi South 12.7 mph 17.3 mph N/A   Partly Cloudy
1:35 AM 62.6 °F 59.0 °F 88% 29.79 in 10.0 mi SW 13.8 mph 17.3 mph N/A   Scattered Clouds
1:55 AM 64.4 °F 59.0 °F 83% 29.78 in 10.0 mi SSW 8.1 mph - N/A   Scattered Clouds
2:15 AM 64.4 °F 59.0 °F 83% 29.78 in 10.0 mi SW 10.4 mph - N/A   Scattered Clouds
2:35 AM 62.6 °F 57.2 °F 82% 29.78 in 10.0 mi SW 5.8 mph - N/A   Partly Cloudy
2:55 AM 62.6 °F 57.2 °F 82% 29.78 in 10.0 mi West 8.1 mph - N/A   Light Drizzle
3:15 AM 62.6 °F 57.2 °F 82% 29.78 in 10.0 mi WSW 8.1 mph - N/A   Partly Cloudy
3:35 AM 62.6 °F 57.2 °F 82% 29.79 in 10.0 mi West 9.2 mph - N/A   Clear
3:55 AM 62.6 °F 57.2 °F 82% 29.79 in 10.0 mi West 9.2 mph - N/A   Clear
4:15 AM 62.6 °F 57.2 °F 82% 29.79 in 10.0 mi West 6.9 mph - N/A   Clear
4:35 AM 60.8 °F 57.2 °F 88% 29.80 in 10.0 mi West 6.9 mph - N/A   Clear
4:55 AM 60.8 °F 57.2 °F 88% 29.82 in 10.0 mi WSW 5.8 mph - N/A   Clear
5:15 AM 59.0 °F 57.2 °F 94% 29.85 in 10.0 mi West 9.2 mph - N/A   Clear
5:35 AM 59.0 °F 55.4 °F 88% 29.87 in 10.0 mi WNW 11.5 mph - N/A   Clear
5:55 AM 57.2 °F 51.8 °F 82% 29.88 in 10.0 mi WNW 8.1 mph - N/A   Partly Cloudy
6:15 AM 57.2 °F 51.8 °F 82% 29.87 in 10.0 mi NNW 8.1 mph - N/A   Partly Cloudy
6:35 AM 57.2 °F 51.8 °F 82% 29.87 in 10.0 mi NNW 4.6 mph - N/A   Clear
6:55 AM 57.2 °F 51.8 °F 82% 29.89 in 10.0 mi Calm Calm - N/A   Clear
7:15 AM 55.4 °F 51.8 °F 88% 29.88 in 10.0 mi Calm Calm - N/A   Clear
7:35 AM 55.4 °F 51.8 °F 88% 29.87 in 8.0 mi North 6.9 mph - N/A   Clear
7:55 AM 57.2 °F 50.0 °F 77% 29.87 in 10.0 mi North 5.8 mph - N/A   Clear
8:15 AM 57.2 °F 50.0 °F 77% 29.87 in 9.0 mi Calm Calm - N/A   Clear
8:55 AM 60.8 °F 51.8 °F 72% 29.91 in 10.0 mi Calm Calm - N/A   Clear
9:15 AM 60.8 °F 51.8 °F 72% 29.92 in 8.0 mi NW 6.9 mph - N/A   Partly Cloudy
9:35 AM 60.8 °F 51.8 °F 72% 29.92 in 5.0 mi NNW 10.4 mph - N/A   Haze
9:55 AM 60.8 °F 50.0 °F 68% 29.92 in 9.0 mi NW 6.9 mph - N/A   Mostly Cloudy
10:15 AM 60.8 °F 48.2 °F 63% 29.92 in 8.0 mi NW 3.5 mph - N/A   Partly Cloudy
10:35 AM 62.6 °F 50.0 °F 63% 29.91 in 8.0 mi NNE 3.5 mph - N/A   Clear
10:55 AM 62.6 °F 51.8 °F 68% 29.91 in 10.0 mi Calm Calm - N/A   Clear
11:15 AM 64.4 °F 51.8 °F 64% 29.90 in 9.0 mi North 4.6 mph - N/A   Clear
11:35 AM 64.4 °F 51.8 °F 64% 29.91 in 10.0 mi WNW 8.1 mph - N/A   Clear
11:55 AM 66.2 °F 51.8 °F 60% 29.91 in 9.0 mi NW 6.9 mph - N/A   Clear
12:15 PM 66.2 °F 48.2 °F 52% 29.91 in 10.0 mi West 6.9 mph - N/A   Clear
12:35 PM 66.2 °F 50.0 °F 56% 29.91 in 9.0 mi Calm Calm - N/A   Clear
12:55 PM 68.0 °F 50.0 °F 52% 29.91 in 10.0 mi NW 8.1 mph - N/A   Clear
1:15 PM 69.8 °F 50.0 °F 49% 29.90 in 9.0 mi West 4.6 mph - N/A   Clear
1:35 PM 69.8 °F 48.2 °F 46% 29.90 in 9.0 mi West 5.8 mph - N/A   Clear
1:55 PM 71.6 °F 50.0 °F 46% 29.90 in 10.0 mi WSW 6.9 mph - N/A   Clear
2:15 PM 71.6 °F 51.8 °F 50% 29.90 in 10.0 mi West 10.4 mph - N/A   Clear
2:35 PM 71.6 °F 53.6 °F 53% 29.89 in 9.0 mi WSW 9.2 mph - N/A   Clear
2:55 PM 71.6 °F 51.8 °F 50% 29.89 in 9.0 mi SW 11.5 mph - N/A   Clear
3:15 PM 71.6 °F 50.0 °F 46% 29.88 in 10.0 mi WSW 8.1 mph - N/A   Clear
3:35 PM 71.6 °F 51.8 °F 50% 29.88 in 10.0 mi SW 9.2 mph - N/A   Clear
3:55 PM 71.6 °F 51.8 °F 50% 29.87 in 10.0 mi WSW 9.2 mph - N/A   Clear
4:15 PM 73.4 °F 50.0 °F 44% 29.87 in 10.0 mi West 9.2 mph - N/A   Clear
4:35 PM 73.4 °F 48.2 °F 41% 29.86 in 7.0 mi West 10.4 mph - N/A   Clear
4:55 PM 73.4 °F 50.0 °F 44% 29.86 in 8.0 mi West 8.1 mph - N/A   Clear
5:15 PM 73.4 °F 50.0 °F 44% 29.86 in 10.0 mi WNW 5.8 mph - N/A   Clear
5:35 PM 73.4 °F 48.2 °F 41% 29.86 in 10.0 mi WNW 5.8 mph - N/A   Clear
5:55 PM 73.4 °F 50.0 °F 44% 29.86 in 10.0 mi WSW 4.6 mph - N/A   Clear
6:15 PM 73.4 °F 48.2 °F 41% 29.86 in 10.0 mi West 4.6 mph - N/A   Clear
6:55 PM 71.6 °F 48.2 °F 43% 29.85 in 10.0 mi West 5.8 mph - N/A   Clear
7:15 PM 71.6 °F 50.0 °F 46% 29.85 in 10.0 mi Calm Calm - N/A   Clear
7:35 PM 71.6 °F 51.8 °F 50% 29.86 in 10.0 mi Calm Calm - N/A   Clear
7:55 PM 69.8 °F 51.8 °F 53% 29.86 in 10.0 mi Calm Calm - N/A   Clear
8:15 PM 66.2 °F 51.8 °F 60% 29.87 in 10.0 mi Calm Calm - N/A   Clear
8:35 PM 66.2 °F 50.0 °F 56% 29.87 in 10.0 mi Calm Calm - N/A   Clear
8:55 PM 64.4 °F 51.8 °F 64% 29.87 in 10.0 mi Calm Calm - N/A   Clear
9:15 PM 62.6 °F 51.8 °F 68% 29.88 in 10.0 mi Calm Calm - N/A   Clear
9:35 PM 60.8 °F 51.8 °F 72% 29.88 in 10.0 mi Calm Calm - N/A   Clear
9:55 PM 59.0 °F 53.6 °F 82% 29.89 in 10.0 mi Calm Calm - N/A   Clear
10:15 PM 59.0 °F 51.8 °F 77% 29.90 in 10.0 mi Calm Calm - N/A   Clear
10:35 PM 57.2 °F 53.6 °F 88% 29.91 in 10.0 mi Calm Calm - N/A   Clear
10:55 PM 57.2 °F 51.8 °F 82% 29.91 in 10.0 mi Calm Calm - N/A   Clear
11:15 PM 55.4 °F 51.8 °F 88% 29.92 in 10.0 mi SE 3.5 mph - N/A   Clear
11:35 PM 57.2 °F 51.8 °F 82% 29.92 in 10.0 mi Calm Calm - N/A   Clear
11:55 PM 55.4 °F 51.8 °F 88% 29.92 in 10.0 mi Calm Calm - N/A   Clear